Regional Weather Roundup
Issued by NWS

Home | Current Version | Previous Version | Graphics & Text | Print | Product List | Glossary On
Versions: 1 2 3 4 5 6 7 8 9 10 11 12 13 14 15 16 17 18 19 20 21 22 23 24 25 26 27 28 29 30 31 32 33 34 35 36 37 38 39 40 41 42 43 44 45 46 47 48 49 50
000
ASUS43 KDMX 020507
RWRIA

WEATHER ROUNDUP FOR IOWA
NATIONAL WEATHER SERVICE DES MOINES IA
1200 AM CDT SUN AUG 02 2015

NOTE: "FAIR" INDICATES FEW OR NO CLOUDS BELOW 12,000 FEET WITH NO
SIGNIFICANT WEATHER AND/OR OBSTRUCTIONS TO VISIBILITY.

* - THESE STATIONS ARE NOT NWS STATIONS...THUS NOT UNDER NWS
QUALITY CONTROL.  THEY ALSO DO NOT REPORT WEATHER SUCH
AS PRECIPITATION OR FOG.

IAZ001>003-012>014-020>022-031>034-043>046-020600-
   NORTHWEST IOWA

CITY           SKY/WX    TMP DP  RH WIND       PRES   REMARKS
CARROLL *      CLEAR     70  70 100 SW8       29.90S
CHEROKEE *     PTCLDY    68  68 100 S3        29.88F
DENISON *      CLEAR     70  68  94 CALM      29.89S
LE MARS *      CLEAR     68  66  94 S5        29.88S
ORANGE CITY *  CLEAR     66  64  94 S8        29.87F
SHELDON *      CLEAR     70  66  88 SW9       29.85F
SIOUX CITY     CLEAR     68  63  84 E5        29.88F
SPENCER        PTCLDY    71  66  84 S9        29.87F
STORM LAKE *   CLEAR     66  64  94 SW6       29.91F
$$

IAZ055>058-069>071-079>083-090>094-020600-
   SOUTHWEST IOWA

CITY           SKY/WX    TMP DP  RH WIND       PRES   REMARKS
ATLANTIC *     CLEAR     70  70 100 S6        29.93R
AUDUBON *      CLEAR     66  63  88 CALM      29.93S
CLARINDA *     CLEAR     72  64  78 S9        29.96F
COUNCIL BLFS * CLEAR     75  72  88 S8        29.92F
CRESTON *      CLEAR     70  66  88 S10       29.96F
HARLAN  *      CLEAR     70  70 100 S3        29.95S FOG
LAMONI         PTCLDY    70  66  87 SW9       29.95F
RED OAK *      CLEAR     73  66  78 S12       29.94S
SHENANDOAH *     N/A     73  66  78 S13G21    29.94S
$$

IAZ047>049-059>061-072>074-084-020600-
   CENTRAL IOWA

CITY           SKY/WX    TMP DP  RH WIND       PRES   REMARKS
AMES           CLEAR     71  69  93 SW5       29.90S
ANKENY *       PTCLDY    77  73  88 S10       29.90F
CHARITON *     CLEAR     72  68  88 SW6       29.94S
DES MOINES     PTCLDY    77  70  79 SW12      29.91S
GRINNELL*      CLEAR     75  70  83 SW10      29.91F
KNOXVILLE *    CLEAR     73  68  83 SW8       29.91F
MARSHALLTOWN   CLEAR     73  70  90 SW6       29.90R
PELLA *        CLEAR     74  72  92 SW6       29.93S
PERRY *          N/A     72  70  94 S6        29.90F
$$

IAZ004>006-015-016-023>025-035-036-020600-
   NORTH CENTRAL IOWA

CITY           SKY/WX    TMP DP  RH WIND       PRES   REMARKS
ALGONA *       CLEAR     68  66  94 S9        29.88F
CLARION *      CLEAR     68  66  94 S7        29.89S
ESTHERVILLE    CLEAR     70  66  87 SW10      29.85F
FORT DODGE *   CLEAR     70  66  88 SW6       29.90S
MASON CITY     CLEAR     73  69  87 SW9       29.89S
FOREST CITY *  CLEAR     70  68  94 S6        29.87F
IOWA FALLS *     N/A     72  70  94 SW6       29.91S
$$

IAZ007>011-017>019-026>030-037>042-050>054-066-020600-
   NORTHEAST IOWA

CITY           SKY/WX    TMP DP  RH WIND       PRES   REMARKS
CEDAR RAPIDS   CLEAR     70  70 100 S6        29.90S
CHARLES CITY * CLEAR     72  72 100 S8        29.88F
CLINTON *      CLEAR     66  64  94 W5        29.94R
DECORAH *      CLEAR     72  68  88 VRB6G14   29.87S
DUBUQUE        CLEAR     70  68  93 SW9       29.90F
MONTICELLO *   CLEAR     70  68  94 S3        29.90S
OELWEIN *        N/A     70  68  94 S7        29.90S
WATERLOO       CLEAR     73  69  87 S5        29.88R
$$

IAZ064-065-067-068-078-020600-
   EAST CENTRAL IOWA

CITY           SKY/WX    TMP DP  RH WIND       PRES   REMARKS
DAVENPORT      CLEAR     72  68  87 SW7       29.92S
IOWA CITY      CLEAR     73  69  87 S3        29.92S
MT. PLEASANT * CLEAR     73  70  88 SW6       29.93S
MUSCATINE *    CLEAR     72  70  94 S5        29.92R
QUAD CITIES    CLEAR     75  69  81 SW7       29.91S
$$

IAZ062-063-075>077-085>089-095>099-020600-
   SOUTHEAST IOWA

CITY           SKY/WX    TMP DP  RH WIND       PRES   REMARKS
BURLINGTON     CLEAR     73  72  96 SW6       29.93S
FAIRFIELD *    CLEAR     73  70  88 SW6G13    29.93S
FORT MADISON * CLEAR     73  72  94 SW6       29.95R
KEOKUK *       CLEAR     73  70  88 SW7       29.94R
OSKALOOSA *      N/A     72  68  88 SW3       29.92F
CENTERVILLE *  CLEAR     68  66  94 SW5       29.95F
OTTUMWA        CLEAR     71  69  93 SW7       29.91F
WASHINGTON *   CLEAR     73  72  94 SW6       29.93S
$$

ABBREVIATIONS USED IN REMARKS
   TC - TEMPERATURES IN CELSIUS
  WCI - WIND CHILL INDEX
   HX - HEAT INDEX
  VSB - VISIBILITY
$$



USA.gov is the U.S. government's official web portal to all federal, state and local government web resources and services.